contact:dominique.lefevre@mio.osupytheas.fr, maurice.libes@osupytheas.fr, didier.mallarino@osupytheas.fr
Project:EMSO http://www.emso-fr.org/EMSO-France
Depth: 2436.0 m
Title:EMSO Ligure Ouest : Data MII capteur MICROCAT
DateTime_Computer,Latitude,Longitude,Temperature,Conductivity,Pressure,DateTime_Instrument
DateTime_Computer,Latitude,Longitude,degC,S m-1,dbar,DateTime_Instrument
2020-01-11T00:01:55Z,42.805,6.029,13.3019,4.60009,2469.9,2020-1-11T02:02:27Z
2020-01-11T00:04:58Z,42.805,6.029,13.3009,4.60037,2469.927,2020-1-11T02:05:30Z
2020-01-11T00:08:01Z,42.805,6.029,13.3012,4.60021,2469.914,2020-1-11T02:08:33Z
2020-01-11T00:11:04Z,42.805,6.029,13.3022,4.60033,2469.9,2020-1-11T02:11:37Z
2020-01-11T00:14:08Z,42.805,6.029,13.3013,4.60081,2469.937,2020-1-11T02:14:40Z
2020-01-11T00:17:11Z,42.805,6.029,13.3025,4.60036,2469.9,2020-1-11T02:17:43Z
2020-01-11T00:20:14Z,42.805,6.029,13.3032,4.60064,2469.89,2020-1-11T02:20:46Z
2020-01-11T00:23:18Z,42.805,6.029,13.3015,4.60033,2469.923,2020-1-11T02:23:50Z
2020-01-11T00:26:21Z,42.805,6.029,13.3015,4.60018,2469.89,2020-1-11T02:26:53Z
2020-01-11T00:29:24Z,42.805,6.029,13.3006,4.60014,2469.914,2020-1-11T02:29:56Z
2020-01-11T00:32:27Z,42.805,6.029,13.3007,4.60009,2469.876,2020-1-11T02:32:59Z
2020-01-11T00:35:30Z,42.805,6.029,13.2981,4.60029,2469.914,2020-1-11T02:36:03Z
2020-01-11T00:38:34Z,42.805,6.029,13.3005,4.60019,2469.876,2020-1-11T02:39:06Z
2020-01-11T00:41:37Z,42.805,6.029,13.2998,4.60035,2469.9,2020-1-11T02:42:09Z
2020-01-11T00:44:40Z,42.805,6.029,13.2987,4.60011,2469.89,2020-1-11T02:45:12Z
2020-01-11T00:47:43Z,42.805,6.029,13.2979,4.60017,2469.89,2020-1-11T02:48:16Z
2020-01-11T00:50:47Z,42.805,6.029,13.2992,4.60010,2469.914,2020-1-11T02:51:19Z
2020-01-11T00:53:50Z,42.805,6.029,13.3000,4.60025,2469.89,2020-1-11T02:54:22Z
2020-01-11T00:56:53Z,42.805,6.029,13.3025,4.60011,2469.923,2020-1-11T02:57:25Z
2020-01-11T00:59:56Z,42.805,6.029,13.3006,4.60040,2469.89,2020-1-11T03:00:29Z
2020-01-11T01:03:00Z,42.805,6.029,13.3004,4.60014,2469.89,2020-1-11T03:03:32Z
2020-01-11T01:06:03Z,42.805,6.029,13.3003,4.59989,2469.876,2020-1-11T03:06:35Z
2020-01-11T01:09:06Z,42.805,6.029,13.3004,4.59996,2469.9,2020-1-11T03:09:38Z
2020-01-11T01:12:09Z,42.805,6.029,13.2985,4.60018,2469.876,2020-1-11T03:12:41Z
2020-01-11T01:15:13Z,42.805,6.029,13.3006,4.59995,2469.876,2020-1-11T03:15:45Z
2020-01-11T01:18:16Z,42.805,6.029,13.3002,4.60003,2469.923,2020-1-11T03:18:48Z
2020-01-11T01:21:19Z,42.805,6.029,13.2977,4.59988,2469.89,2020-1-11T03:21:51Z
2020-01-11T01:24:22Z,42.805,6.029,13.2979,4.60019,2469.876,2020-1-11T03:24:54Z
2020-01-11T01:27:25Z,42.805,6.029,13.2986,4.59988,2469.9,2020-1-11T03:27:58Z
2020-01-11T01:30:29Z,42.805,6.029,13.2990,4.60009,2469.876,2020-1-11T03:31:01Z
2020-01-11T01:33:32Z,42.805,6.029,13.2986,4.59981,2469.9,2020-1-11T03:34:04Z
2020-01-11T01:36:35Z,42.805,6.029,13.3000,4.59972,2469.923,2020-1-11T03:37:07Z
2020-01-11T01:39:38Z,42.805,6.029,13.2972,4.59999,2469.89,2020-1-11T03:40:11Z
2020-01-11T01:42:42Z,42.805,6.029,13.2985,4.59995,2469.89,2020-1-11T03:43:14Z
2020-01-11T01:45:45Z,42.805,6.029,13.2979,4.59990,2469.9,2020-1-11T03:46:17Z
2020-01-11T01:48:48Z,42.805,6.029,13.2979,4.59981,2469.89,2020-1-11T03:49:20Z
2020-01-11T01:51:51Z,42.805,6.029,13.2983,4.59975,2469.914,2020-1-11T03:52:24Z
2020-01-11T01:54:55Z,42.805,6.029,13.2974,4.59994,2469.853,2020-1-11T03:55:27Z
2020-01-11T01:57:58Z,42.805,6.029,13.2971,4.59996,2469.853,2020-1-11T03:58:30Z
2020-01-11T02:01:01Z,42.805,6.029,13.2968,4.59985,2469.876,2020-1-11T04:01:34Z
2020-01-11T02:04:05Z,42.805,6.029,13.2974,4.59984,2469.914,2020-1-11T04:04:37Z
2020-01-11T02:07:08Z,42.805,6.029,13.2980,4.59987,2469.9,2020-1-11T04:07:40Z
2020-01-11T02:10:11Z,42.805,6.029,13.2978,4.60002,2469.89,2020-1-11T04:10:43Z
2020-01-11T02:13:15Z,42.805,6.029,13.2969,4.59984,2469.876,2020-1-11T04:13:47Z
2020-01-11T02:16:18Z,42.805,6.029,13.2969,4.59976,2469.853,2020-1-11T04:16:50Z
2020-01-11T02:19:21Z,42.805,6.029,13.2979,4.59990,2469.853,2020-1-11T04:19:53Z
2020-01-11T02:22:24Z,42.805,6.029,13.2982,4.59988,2469.876,2020-1-11T04:22:56Z
2020-01-11T02:25:27Z,42.805,6.029,13.2974,4.59976,2469.876,2020-1-11T04:26:00Z
2020-01-11T02:28:31Z,42.805,6.029,13.2974,4.59978,2469.876,2020-1-11T04:29:03Z
2020-01-11T02:31:34Z,42.805,6.029,13.2969,4.59981,2469.937,2020-1-11T04:32:06Z
2020-01-11T02:34:37Z,42.805,6.029,13.2976,4.59988,2469.914,2020-1-11T04:35:09Z
2020-01-11T02:37:41Z,42.805,6.029,13.2974,4.59975,2469.9,2020-1-11T04:38:13Z
2020-01-11T02:40:44Z,42.805,6.029,13.2974,4.59988,2469.914,2020-1-11T04:41:16Z
2020-01-11T02:43:47Z,42.805,6.029,13.2975,4.59976,2469.876,2020-1-11T04:44:19Z
2020-01-11T02:46:50Z,42.805,6.029,13.2977,4.59981,2469.914,2020-1-11T04:47:22Z
2020-01-11T02:49:53Z,42.805,6.029,13.2980,4.59977,2469.89,2020-1-11T04:50:26Z
2020-01-11T02:52:57Z,42.805,6.029,13.2978,4.59978,2469.9,2020-1-11T04:53:29Z
2020-01-11T02:56:00Z,42.805,6.029,13.2987,4.59981,2469.9,2020-1-11T04:56:32Z
2020-01-11T02:59:03Z,42.805,6.029,13.2974,4.59991,2469.9,2020-1-11T04:59:35Z
2020-01-11T03:02:06Z,42.805,6.029,13.2971,4.59983,2469.9,2020-1-11T05:02:39Z
2020-01-11T03:05:10Z,42.805,6.029,13.2979,4.59990,2469.9,2020-1-11T05:05:42Z
2020-01-11T03:08:13Z,42.805,6.029,13.2990,4.59974,2469.927,2020-1-11T05:08:45Z
2020-01-11T03:11:16Z,42.805,6.029,13.2980,4.59977,2469.923,2020-1-11T05:11:48Z
2020-01-11T03:14:19Z,42.805,6.029,13.2980,4.59999,2469.96,2020-1-11T05:14:52Z
2020-01-11T03:17:23Z,42.805,6.029,13.2976,4.59980,2469.937,2020-1-11T05:17:55Z
2020-01-11T03:20:26Z,42.805,6.029,13.2980,4.59981,2469.923,2020-1-11T05:20:58Z
2020-01-11T03:23:29Z,42.805,6.029,13.2976,4.59986,2469.923,2020-1-11T05:24:01Z
2020-01-11T03:26:32Z,42.805,6.029,13.2983,4.59991,2469.914,2020-1-11T05:27:04Z
2020-01-11T03:29:35Z,42.805,6.029,13.2982,4.59989,2469.96,2020-1-11T05:30:08Z
2020-01-11T03:32:39Z,42.805,6.029,13.2976,4.59985,2469.937,2020-1-11T05:33:11Z
2020-01-11T03:35:42Z,42.805,6.029,13.2984,4.59980,2469.96,2020-1-11T05:36:14Z
2020-01-11T03:38:45Z,42.805,6.029,13.2974,4.59989,2469.97,2020-1-11T05:39:17Z
2020-01-11T03:41:48Z,42.805,6.029,13.2988,4.59999,2469.923,2020-1-11T05:42:21Z
2020-01-11T03:44:52Z,42.805,6.029,13.2989,4.59992,2469.947,2020-1-11T05:45:24Z
2020-01-11T03:47:55Z,42.805,6.029,13.2979,4.59991,2469.947,2020-1-11T05:48:27Z
2020-01-11T03:50:58Z,42.805,6.029,13.2986,4.59988,2469.96,2020-1-11T05:51:30Z
2020-01-11T03:54:01Z,42.805,6.029,13.2979,4.59977,2469.96,2020-1-11T05:54:34Z
2020-01-11T03:57:05Z,42.805,6.029,13.2975,4.59996,2469.947,2020-1-11T05:57:37Z
2020-01-11T04:00:08Z,42.805,6.029,13.2972,4.60016,2470.017,2020-1-11T06:00:40Z
2020-01-11T04:03:12Z,42.805,6.029,13.2986,4.59987,2470.03,2020-1-11T06:03:44Z
2020-01-11T04:06:15Z,42.805,6.029,13.2990,4.60005,2470.007,2020-1-11T06:06:47Z
2020-01-11T04:09:18Z,42.805,6.029,13.2995,4.59988,2469.97,2020-1-11T06:09:50Z
2020-01-11T04:12:21Z,42.805,6.029,13.2994,4.59986,2470.007,2020-1-11T06:12:53Z
2020-01-11T04:15:24Z,42.805,6.029,13.2981,4.59973,2469.97,2020-1-11T06:15:57Z
2020-01-11T04:18:28Z,42.805,6.029,13.2978,4.59978,2469.993,2020-1-11T06:19:00Z
2020-01-11T04:21:31Z,42.805,6.029,13.2977,4.59976,2469.993,2020-1-11T06:22:03Z
2020-01-11T04:24:34Z,42.805,6.029,13.2979,4.59984,2470.04,2020-1-11T06:25:06Z
2020-01-11T04:27:38Z,42.805,6.029,13.2975,4.59996,2469.984,2020-1-11T06:28:10Z
2020-01-11T04:30:41Z,42.805,6.029,13.2983,4.59977,2469.993,2020-1-11T06:31:13Z
2020-01-11T04:33:44Z,42.805,6.029,13.2988,4.59980,2470.007,2020-1-11T06:34:16Z
2020-01-11T04:36:47Z,42.805,6.029,13.2983,4.59983,2470.03,2020-1-11T06:37:19Z
2020-01-11T04:39:51Z,42.805,6.029,13.2991,4.59991,2470.04,2020-1-11T06:40:23Z
2020-01-11T04:42:54Z,42.805,6.029,13.2987,4.59981,2470.017,2020-1-11T06:43:26Z
2020-01-11T04:45:57Z,42.805,6.029,13.2981,4.59981,2470.03,2020-1-11T06:46:29Z
2020-01-11T04:49:00Z,42.805,6.029,13.2993,4.59979,2470.017,2020-1-11T06:49:32Z
2020-01-11T04:52:04Z,42.805,6.029,13.2985,4.59981,2470.063,2020-1-11T06:52:36Z
2020-01-11T04:55:07Z,42.805,6.029,13.2980,4.59983,2470.063,2020-1-11T06:55:39Z
2020-01-11T04:58:10Z,42.805,6.029,13.2980,4.59981,2470.04,2020-1-11T06:58:42Z
2020-01-11T05:01:13Z,42.805,6.029,13.2983,4.59981,2470.063,2020-1-11T07:01:45Z
2020-01-11T05:04:17Z,42.805,6.029,13.2980,4.59983,2470.04,2020-1-11T07:04:49Z
2020-01-11T05:07:20Z,42.805,6.029,13.2977,4.59981,2470.087,2020-1-11T07:07:52Z
2020-01-11T05:10:23Z,42.805,6.029,13.2981,4.59976,2470.04,2020-1-11T07:10:55Z
2020-01-11T05:13:26Z,42.805,6.029,13.2988,4.59983,2470.063,2020-1-11T07:13:58Z
2020-01-11T05:16:29Z,42.805,6.029,13.2986,4.59981,2470.087,2020-1-11T07:17:02Z
2020-01-11T05:19:33Z,42.805,6.029,13.3015,4.59977,2470.04,2020-1-11T07:20:05Z
2020-01-11T05:22:36Z,42.805,6.029,13.2990,4.59971,2470.1,2020-1-11T07:23:08Z
2020-01-11T05:25:39Z,42.805,6.029,13.2988,4.59980,2470.087,2020-1-11T07:26:11Z
2020-01-11T05:28:42Z,42.805,6.029,13.2990,4.59976,2470.11,2020-1-11T07:29:15Z
2020-01-11T05:31:46Z,42.805,6.029,13.2994,4.59984,2470.1,2020-1-11T07:32:18Z
2020-01-11T05:34:49Z,42.805,6.029,13.2990,4.59981,2470.1,2020-1-11T07:35:21Z
2020-01-11T05:37:52Z,42.805,6.029,13.3000,4.59978,2470.11,2020-1-11T07:38:24Z
2020-01-11T05:40:55Z,42.805,6.029,13.2991,4.59985,2470.11,2020-1-11T07:41:28Z
2020-01-11T05:43:59Z,42.805,6.029,13.2991,4.59986,2470.1,2020-1-11T07:44:31Z
2020-01-11T05:47:02Z,42.805,6.029,13.2991,4.59985,2470.087,2020-1-11T07:47:34Z
2020-01-11T05:50:05Z,42.805,6.029,13.2984,4.59976,2470.087,2020-1-11T07:50:37Z
2020-01-11T05:53:09Z,42.805,6.029,13.2979,4.59981,2470.087,2020-1-11T07:53:41Z
2020-01-11T05:56:12Z,42.805,6.029,13.2988,4.59981,2470.133,2020-1-11T07:56:44Z
2020-01-11T05:59:15Z,42.805,6.029,13.2985,4.59979,2470.11,2020-1-11T07:59:47Z
2020-01-11T06:02:19Z,42.805,6.029,13.2985,4.59983,2470.124,2020-1-11T08:02:51Z
2020-01-11T06:05:22Z,42.805,6.029,13.2991,4.59979,2470.133,2020-1-11T08:05:54Z
2020-01-11T06:08:25Z,42.805,6.029,13.2988,4.59986,2470.124,2020-1-11T08:08:57Z
2020-01-11T06:11:28Z,42.805,6.029,13.2986,4.59986,2470.147,2020-1-11T08:12:00Z
2020-01-11T06:14:31Z,42.805,6.029,13.2990,4.59982,2470.124,2020-1-11T08:15:04Z
2020-01-11T06:17:35Z,42.805,6.029,13.2986,4.59990,2470.133,2020-1-11T08:18:07Z
2020-01-11T06:20:38Z,42.805,6.029,13.2984,4.59991,2470.194,2020-1-11T08:21:10Z
2020-01-11T06:23:41Z,42.805,6.029,13.2993,4.59993,2470.147,2020-1-11T08:24:13Z
2020-01-11T06:26:44Z,42.805,6.029,13.2989,4.59990,2470.11,2020-1-11T08:27:17Z
2020-01-11T06:29:48Z,42.805,6.029,13.2990,4.59989,2470.11,2020-1-11T08:30:20Z
2020-01-11T06:32:51Z,42.805,6.029,13.2996,4.59989,2470.156,2020-1-11T08:33:23Z
2020-01-11T06:35:54Z,42.805,6.029,13.2993,4.59985,2470.147,2020-1-11T08:36:26Z
2020-01-11T06:38:57Z,42.805,6.029,13.2990,4.59991,2470.156,2020-1-11T08:39:30Z
2020-01-11T06:42:01Z,42.805,6.029,13.2997,4.59995,2470.133,2020-1-11T08:42:33Z
2020-01-11T06:45:04Z,42.805,6.029,13.2993,4.59990,2470.133,2020-1-11T08:45:36Z
2020-01-11T06:48:07Z,42.805,6.029,13.3006,4.60004,2470.171,2020-1-11T08:48:39Z
2020-01-11T06:51:10Z,42.805,6.029,13.3001,4.59991,2470.147,2020-1-11T08:51:43Z
2020-01-11T06:54:14Z,42.805,6.029,13.2997,4.59991,2470.133,2020-1-11T08:54:46Z
2020-01-11T06:57:17Z,42.805,6.029,13.2990,4.59994,2470.171,2020-1-11T08:57:49Z
2020-01-11T07:00:20Z,42.805,6.029,13.2994,4.59999,2470.18,2020-1-11T09:00:53Z
2020-01-11T07:03:24Z,42.805,6.029,13.3001,4.59986,2470.133,2020-1-11T09:03:56Z
2020-01-11T07:06:27Z,42.805,6.029,13.2999,4.59985,2470.156,2020-1-11T09:06:59Z
2020-01-11T07:09:30Z,42.805,6.029,13.2986,4.59988,2470.156,2020-1-11T09:10:02Z
2020-01-11T07:12:33Z,42.805,6.029,13.3014,4.59998,2470.171,2020-1-11T09:13:06Z
2020-01-11T07:15:37Z,42.805,6.029,13.2997,4.59994,2470.133,2020-1-11T09:16:09Z
2020-01-11T07:18:40Z,42.805,6.029,13.2985,4.59992,2470.171,2020-1-11T09:19:12Z
2020-01-11T07:21:43Z,42.805,6.029,13.2990,4.59990,2470.124,2020-1-11T09:22:15Z
2020-01-11T07:24:47Z,42.805,6.029,13.3007,4.59991,2470.171,2020-1-11T09:25:19Z
2020-01-11T07:27:50Z,42.805,6.029,13.2998,4.60009,2470.156,2020-1-11T09:28:22Z
2020-01-11T07:30:53Z,42.805,6.029,13.2983,4.59992,2470.156,2020-1-11T09:31:26Z
2020-01-11T07:33:57Z,42.805,6.029,13.2972,4.59988,2470.194,2020-1-11T09:34:29Z
2020-01-11T07:37:00Z,42.805,6.029,13.2991,4.59986,2470.156,2020-1-11T09:37:32Z
2020-01-11T07:40:03Z,42.805,6.029,13.2976,4.59991,2470.194,2020-1-11T09:40:36Z
2020-01-11T07:43:07Z,42.805,6.029,13.2977,4.59997,2470.18,2020-1-11T09:43:39Z
2020-01-11T07:46:10Z,42.805,6.029,13.2971,4.59994,2470.217,2020-1-11T09:46:42Z
2020-01-11T07:49:13Z,42.805,6.029,13.2964,4.59986,2470.217,2020-1-11T09:49:45Z
2020-01-11T07:52:16Z,42.805,6.029,13.2963,4.59980,2470.194,2020-1-11T09:52:48Z
2020-01-11T07:55:20Z,42.805,6.029,13.2968,4.59981,2470.203,2020-1-11T09:55:52Z
2020-01-11T07:58:23Z,42.805,6.029,13.2964,4.59970,2470.194,2020-1-11T09:58:55Z
2020-01-11T08:01:26Z,42.805,6.029,13.2963,4.59972,2470.217,2020-1-11T10:01:58Z
2020-01-11T08:04:29Z,42.805,6.029,13.2966,4.59972,2470.203,2020-1-11T10:05:02Z
2020-01-11T08:07:33Z,42.805,6.029,13.2965,4.59973,2470.194,2020-1-11T10:08:05Z
2020-01-11T08:10:36Z,42.805,6.029,13.2966,4.59974,2470.156,2020-1-11T10:11:08Z
2020-01-11T08:13:39Z,42.805,6.029,13.2961,4.59976,2470.194,2020-1-11T10:14:11Z
2020-01-11T08:16:42Z,42.805,6.029,13.2962,4.59973,2470.203,2020-1-11T10:17:15Z
2020-01-11T08:19:46Z,42.805,6.029,13.2962,4.59967,2470.194,2020-1-11T10:20:18Z
2020-01-11T08:22:49Z,42.805,6.029,13.2961,4.59970,2470.171,2020-1-11T10:23:21Z
2020-01-11T08:25:52Z,42.805,6.029,13.2964,4.59974,2470.171,2020-1-11T10:26:24Z
2020-01-11T08:28:55Z,42.805,6.029,13.2964,4.59968,2470.133,2020-1-11T10:29:28Z
2020-01-11T08:31:59Z,42.805,6.029,13.2962,4.59973,2470.156,2020-1-11T10:32:31Z
2020-01-11T08:35:02Z,42.805,6.029,13.2965,4.59969,2470.194,2020-1-11T10:35:34Z
2020-01-11T08:38:05Z,42.805,6.029,13.2961,4.59965,2470.189,2020-1-11T10:38:38Z
2020-01-11T08:41:09Z,42.805,6.029,13.2962,4.59966,2470.194,2020-1-11T10:41:41Z
2020-01-11T08:44:12Z,42.805,6.029,13.2965,4.59968,2470.18,2020-1-11T10:44:44Z
2020-01-11T08:47:15Z,42.805,6.029,13.2959,4.59966,2470.18,2020-1-11T10:47:47Z
2020-01-11T08:50:18Z,42.805,6.029,13.2962,4.59968,2470.171,2020-1-11T10:50:51Z
2020-01-11T08:53:22Z,42.805,6.029,13.2960,4.59973,2470.156,2020-1-11T10:53:54Z
2020-01-11T08:56:25Z,42.805,6.029,13.2964,4.59973,2470.18,2020-1-11T10:56:57Z
2020-01-11T08:59:28Z,42.805,6.029,13.2964,4.59970,2470.18,2020-1-11T11:00:00Z
2020-01-11T09:02:31Z,42.805,6.029,13.2958,4.59974,2470.171,2020-1-11T11:03:04Z
2020-01-11T09:05:35Z,42.805,6.029,13.2961,4.59969,2470.156,2020-1-11T11:06:07Z
2020-01-11T09:08:38Z,42.805,6.029,13.2964,4.59968,2470.18,2020-1-11T11:09:10Z
2020-01-11T09:11:41Z,42.805,6.029,13.2962,4.59970,2470.18,2020-1-11T11:12:13Z
2020-01-11T09:14:45Z,42.805,6.029,13.2964,4.59970,2470.18,2020-1-11T11:15:17Z
2020-01-11T09:17:48Z,42.805,6.029,13.2964,4.59971,2470.156,2020-1-11T11:18:20Z
2020-01-11T09:20:51Z,42.805,6.029,13.2960,4.59968,2470.194,2020-1-11T11:21:23Z
2020-01-11T09:23:54Z,42.805,6.029,13.2961,4.59972,2470.171,2020-1-11T11:24:26Z
2020-01-11T09:26:57Z,42.805,6.029,13.2961,4.59971,2470.18,2020-1-11T11:27:30Z
2020-01-11T09:30:01Z,42.805,6.029,13.2962,4.59966,2470.18,2020-1-11T11:30:33Z
2020-01-11T09:33:04Z,42.805,6.029,13.2962,4.59971,2470.156,2020-1-11T11:33:36Z
2020-01-11T09:36:07Z,42.805,6.029,13.2960,4.59976,2470.156,2020-1-11T11:36:39Z
2020-01-11T09:39:10Z,42.805,6.029,13.2963,4.59977,2470.156,2020-1-11T11:39:43Z
2020-01-11T09:42:14Z,42.805,6.029,13.2963,4.59969,2470.18,2020-1-11T11:42:46Z
2020-01-11T09:45:17Z,42.805,6.029,13.2959,4.59968,2470.133,2020-1-11T11:45:49Z
2020-01-11T09:48:20Z,42.805,6.029,13.2964,4.59967,2470.156,2020-1-11T11:48:52Z
2020-01-11T09:51:23Z,42.805,6.029,13.2966,4.59968,2470.18,2020-1-11T11:51:56Z
2020-01-11T09:54:27Z,42.805,6.029,13.2964,4.59973,2470.133,2020-1-11T11:54:59Z
2020-01-11T09:57:30Z,42.805,6.029,13.2964,4.59976,2470.156,2020-1-11T11:58:02Z
2020-01-11T10:00:33Z,42.805,6.029,13.2962,4.59968,2470.171,2020-1-11T12:01:05Z
2020-01-11T10:03:36Z,42.805,6.029,13.2962,4.59970,2470.156,2020-1-11T12:04:08Z
2020-01-11T10:06:40Z,42.805,6.029,13.2961,4.59968,2470.133,2020-1-11T12:07:12Z
2020-01-11T10:09:43Z,42.805,6.029,13.2966,4.59968,2470.11,2020-1-11T12:10:15Z
2020-01-11T10:12:46Z,42.805,6.029,13.2962,4.59971,2470.11,2020-1-11T12:13:18Z
2020-01-11T10:15:49Z,42.805,6.029,13.2963,4.59968,2470.171,2020-1-11T12:16:22Z
2020-01-11T10:18:53Z,42.805,6.029,13.2968,4.59978,2470.133,2020-1-11T12:19:25Z
2020-01-11T10:21:56Z,42.805,6.029,13.2960,4.59971,2470.133,2020-1-11T12:22:28Z
2020-01-11T10:24:59Z,42.805,6.029,13.2958,4.59969,2470.156,2020-1-11T12:25:31Z
2020-01-11T10:28:02Z,42.805,6.029,13.2965,4.59974,2470.11,2020-1-11T12:28:35Z
2020-01-11T10:31:06Z,42.805,6.029,13.2960,4.59981,2470.11,2020-1-11T12:31:38Z
2020-01-11T10:34:09Z,42.805,6.029,13.2964,4.59978,2470.147,2020-1-11T12:34:42Z
2020-01-11T10:37:13Z,42.805,6.029,13.2961,4.59973,2470.156,2020-1-11T12:37:45Z
2020-01-11T10:40:16Z,42.805,6.029,13.2960,4.59981,2470.133,2020-1-11T12:40:48Z
2020-01-11T10:43:19Z,42.805,6.029,13.2961,4.59981,2470.124,2020-1-11T12:43:52Z
2020-01-11T10:46:23Z,42.805,6.029,13.2962,4.59972,2470.147,2020-1-11T12:46:55Z
2020-01-11T10:49:26Z,42.805,6.029,13.2964,4.59981,2470.11,2020-1-11T12:49:58Z
2020-01-11T10:52:29Z,42.805,6.029,13.2965,4.59968,2470.087,2020-1-11T12:53:01Z
2020-01-11T10:55:32Z,42.805,6.029,13.2963,4.59979,2470.133,2020-1-11T12:56:04Z
2020-01-11T10:58:36Z,42.805,6.029,13.2984,4.59981,2470.133,2020-1-11T12:59:08Z
2020-01-11T11:01:39Z,42.805,6.029,13.2965,4.59974,2470.1,2020-1-11T13:02:11Z
2020-01-11T11:04:42Z,42.805,6.029,13.2999,4.59986,2470.087,2020-1-11T13:05:14Z
2020-01-11T11:07:45Z,42.805,6.029,13.2964,4.59978,2470.063,2020-1-11T13:08:18Z
2020-01-11T11:10:49Z,42.805,6.029,13.2969,4.59976,2470.087,2020-1-11T13:11:21Z
2020-01-11T11:13:52Z,42.805,6.029,13.2998,4.59999,2470.1,2020-1-11T13:14:24Z
2020-01-11T11:16:55Z,42.805,6.029,13.2967,4.59992,2470.1,2020-1-11T13:17:27Z
2020-01-11T11:19:58Z,42.805,6.029,13.2958,4.59980,2470.124,2020-1-11T13:20:30Z
2020-01-11T11:23:02Z,42.805,6.029,13.3038,4.59996,2470.077,2020-1-11T13:23:34Z
2020-01-11T11:26:05Z,42.805,6.029,13.3024,4.60016,2470.11,2020-1-11T13:26:37Z
2020-01-11T11:29:08Z,42.805,6.029,13.3024,4.60002,2470.087,2020-1-11T13:29:40Z
2020-01-11T11:35:14Z,42.805,6.029,13.2979,4.60001,2470.063,2020-1-11T13:35:47Z
2020-01-11T11:38:18Z,42.805,6.029,13.3015,4.60019,2470.063,2020-1-11T13:38:50Z
2020-01-11T11:41:21Z,42.805,6.029,13.3003,4.60009,2470.063,2020-1-11T13:41:53Z
2020-01-11T11:44:24Z,42.805,6.029,13.2983,4.59985,2470.077,2020-1-11T13:44:56Z
2020-01-11T11:47:27Z,42.805,6.029,13.2973,4.59997,2470.087,2020-1-11T13:48:00Z
2020-01-11T11:50:31Z,42.805,6.029,13.2978,4.60039,2470.077,2020-1-11T13:51:03Z
2020-01-11T11:53:34Z,42.805,6.029,13.2969,4.59998,2470.077,2020-1-11T13:54:06Z
2020-01-11T11:56:37Z,42.805,6.029,13.2964,4.59992,2470.087,2020-1-11T13:57:09Z
2020-01-11T11:59:41Z,42.805,6.029,13.2970,4.60003,2470.04,2020-1-11T14:00:13Z
2020-01-11T12:02:44Z,42.805,6.029,13.2961,4.59991,2470.053,2020-1-11T14:03:16Z
2020-01-11T12:05:47Z,42.805,6.029,13.2962,4.59985,2470.063,2020-1-11T14:06:19Z
2020-01-11T12:08:50Z,42.805,6.029,13.3026,4.59995,2470.04,2020-1-11T14:09:22Z
2020-01-11T12:11:54Z,42.805,6.029,13.3021,4.60013,2470.053,2020-1-11T14:12:26Z
2020-01-11T12:14:57Z,42.805,6.029,13.3002,4.59999,2470.053,2020-1-11T14:15:29Z
2020-01-11T12:18:00Z,42.805,6.029,13.3008,4.59991,2470.017,2020-1-11T14:18:32Z
2020-01-11T12:21:03Z,42.805,6.029,13.2998,4.60003,2470.077,2020-1-11T14:21:36Z
2020-01-11T12:24:07Z,42.805,6.029,13.3001,4.59999,2470.04,2020-1-11T14:24:39Z
2020-01-11T12:27:10Z,42.805,6.029,13.2998,4.59993,2470.03,2020-1-11T14:27:42Z
2020-01-11T12:30:13Z,42.805,6.029,13.3038,4.59988,2470.04,2020-1-11T14:30:45Z
2020-01-11T12:33:16Z,42.805,6.029,13.2995,4.60011,2470.053,2020-1-11T14:33:48Z
2020-01-11T12:36:20Z,42.805,6.029,13.3019,4.60003,2470.017,2020-1-11T14:36:52Z
2020-01-11T12:39:23Z,42.805,6.029,13.3021,4.59999,2470.03,2020-1-11T14:39:55Z
2020-01-11T12:42:26Z,42.805,6.029,13.3037,4.59998,2470.063,2020-1-11T14:42:58Z
2020-01-11T12:45:29Z,42.805,6.029,13.3020,4.59996,2470.007,2020-1-11T14:46:02Z
2020-01-11T12:48:33Z,42.805,6.029,13.3034,4.59999,2470.007,2020-1-11T14:49:05Z
2020-01-11T12:51:36Z,42.805,6.029,13.3001,4.59994,2470.017,2020-1-11T14:52:08Z
2020-01-11T12:54:39Z,42.805,6.029,13.3054,4.60007,2470.03,2020-1-11T14:55:11Z
2020-01-11T12:57:42Z,42.805,6.029,13.3029,4.60002,2469.993,2020-1-11T14:58:14Z
2020-01-11T13:00:45Z,42.805,6.029,13.3010,4.60005,2469.993,2020-1-11T15:01:18Z
2020-01-11T13:03:49Z,42.805,6.029,13.2999,4.60007,2469.984,2020-1-11T15:04:21Z
2020-01-11T13:06:52Z,42.805,6.029,13.3012,4.60016,2470.03,2020-1-11T15:07:24Z
2020-01-11T13:09:55Z,42.805,6.029,13.3028,4.59999,2470.007,2020-1-11T15:10:27Z
2020-01-11T13:12:58Z,42.805,6.029,13.3008,4.59995,2470.017,2020-1-11T15:13:31Z
2020-01-11T13:16:02Z,42.805,6.029,13.3009,4.60011,2470.007,2020-1-11T15:16:34Z
2020-01-11T13:19:05Z,42.805,6.029,13.3033,4.59999,2469.993,2020-1-11T15:19:37Z
2020-01-11T13:22:08Z,42.805,6.029,13.3019,4.59993,2469.984,2020-1-11T15:22:40Z
2020-01-11T13:25:11Z,42.805,6.029,13.3005,4.60004,2469.97,2020-1-11T15:25:44Z
2020-01-11T13:28:15Z,42.805,6.029,13.3011,4.59996,2470.007,2020-1-11T15:28:47Z
2020-01-11T13:31:18Z,42.805,6.029,13.3019,4.59995,2469.984,2020-1-11T15:31:50Z
2020-01-11T13:34:21Z,42.805,6.029,13.3024,4.59994,2469.97,2020-1-11T15:34:53Z
2020-01-11T13:37:25Z,42.805,6.029,13.3027,4.60014,2470.007,2020-1-11T15:37:57Z
2020-01-11T13:40:28Z,42.805,6.029,13.3039,4.59990,2469.947,2020-1-11T15:41:00Z
2020-01-11T13:43:31Z,42.805,6.029,13.3020,4.59996,2469.984,2020-1-11T15:44:03Z
2020-01-11T13:46:34Z,42.805,6.029,13.3007,4.59996,2469.96,2020-1-11T15:47:06Z
2020-01-11T13:49:37Z,42.805,6.029,13.3003,4.59995,2469.97,2020-1-11T15:50:10Z
2020-01-11T13:52:41Z,42.805,6.029,13.3006,4.60001,2469.947,2020-1-11T15:53:13Z
2020-01-11T13:55:44Z,42.805,6.029,13.3032,4.59991,2469.96,2020-1-11T15:56:16Z
2020-01-11T13:58:47Z,42.805,6.029,13.3006,4.59993,2469.96,2020-1-11T15:59:19Z
2020-01-11T14:01:51Z,42.805,6.029,13.3006,4.59991,2469.984,2020-1-11T16:02:23Z
2020-01-11T14:04:54Z,42.805,6.029,13.2989,4.59992,2469.984,2020-1-11T16:05:26Z
2020-01-11T14:07:57Z,42.805,6.029,13.2996,4.59988,2469.984,2020-1-11T16:08:30Z
2020-01-11T14:11:01Z,42.805,6.029,13.2991,4.59987,2469.984,2020-1-11T16:11:33Z
2020-01-11T14:14:04Z,42.805,6.029,13.3000,4.59993,2469.947,2020-1-11T16:14:36Z
2020-01-11T14:17:07Z,42.805,6.029,13.2997,4.59996,2469.947,2020-1-11T16:17:39Z
2020-01-11T14:20:10Z,42.805,6.029,13.3011,4.60001,2469.96,2020-1-11T16:20:43Z
2020-01-11T14:23:14Z,42.805,6.029,13.3021,4.60003,2469.923,2020-1-11T16:23:46Z
2020-01-11T14:26:17Z,42.805,6.029,13.3021,4.59991,2469.97,2020-1-11T16:26:50Z
2020-01-11T14:29:21Z,42.805,6.029,13.3004,4.59996,2469.97,2020-1-11T16:29:53Z
2020-01-11T14:32:24Z,42.805,6.029,13.3009,4.59996,2469.97,2020-1-11T16:32:56Z
2020-01-11T14:35:27Z,42.805,6.029,13.3010,4.60001,2469.923,2020-1-11T16:35:59Z
2020-01-11T14:38:30Z,42.805,6.029,13.3014,4.60018,2469.947,2020-1-11T16:39:03Z
2020-01-11T14:41:34Z,42.805,6.029,13.3024,4.59988,2469.937,2020-1-11T16:42:06Z
2020-01-11T14:44:37Z,42.805,6.029,13.3016,4.59986,2469.9,2020-1-11T16:45:09Z
2020-01-11T14:47:40Z,42.805,6.029,13.3015,4.59997,2469.96,2020-1-11T16:48:12Z
2020-01-11T14:50:43Z,42.805,6.029,13.2993,4.59999,2469.923,2020-1-11T16:51:16Z
2020-01-11T14:53:47Z,42.805,6.029,13.3001,4.59996,2469.937,2020-1-11T16:54:19Z
2020-01-11T14:56:50Z,42.805,6.029,13.3014,4.60011,2469.96,2020-1-11T16:57:22Z
2020-01-11T14:59:53Z,42.805,6.029,13.3018,4.60001,2469.947,2020-1-11T17:00:25Z
2020-01-11T15:02:56Z,42.805,6.029,13.3021,4.59996,2469.923,2020-1-11T17:03:28Z
2020-01-11T15:06:00Z,42.805,6.029,13.3009,4.59999,2469.947,2020-1-11T17:06:32Z
2020-01-11T15:09:03Z,42.805,6.029,13.3028,4.60011,2469.96,2020-1-11T17:09:35Z
2020-01-11T15:12:06Z,42.805,6.029,13.3021,4.60005,2469.96,2020-1-11T17:12:38Z
2020-01-11T15:15:09Z,42.805,6.029,13.3041,4.60009,2469.9,2020-1-11T17:15:41Z
2020-01-11T15:18:12Z,42.805,6.029,13.3019,4.60000,2469.96,2020-1-11T17:18:45Z